This is the latest recevied weather packets stored in our database for station/object KY4GW. If no packets are shown the sender has not sent any weather packets the latest 10 day(s).
| Time | Temp. | Humidity | Pressure | Rain* | Wind** | Luminosity | Snow |
|---|---|---|---|---|---|---|---|
| 1777989737 | 18.89° C | 64% | 1013.8 hPa | 0 mm | - | 218 W/m² | - |
| 1777989434 | 18.89° C | 65% | 1013.4 hPa | 0 mm | - | 211 W/m² | - |
| 1777989130 | 18.89° C | 64% | 1013.4 hPa | 0 mm | - | 226 W/m² | - |
| 1777988826 | 18.33° C | 64% | 1013.4 hPa | 0 mm | - | 221 W/m² | - |
| 1777988524 | 18.33° C | 65% | 1013.4 hPa | 0 mm | - | 201 W/m² | - |
| 1777988220 | 18.89° C | 66% | 1013.4 hPa | 0 mm | - | 195 W/m² | - |
| 1777987917 | 18.89° C | 65% | 1013.4 hPa | 0 mm | - | 184 W/m² | - |
| 1777987613 | 18.89° C | 63% | 1013.8 hPa | 0 mm | - | 206 W/m² | - |
| 1777987311 | 18.89° C | 64% | 1013.8 hPa | 0 mm | - | 218 W/m² | - |
| 1777987007 | 18.89° C | 64% | 1013.8 hPa | 0 mm | - | 232 W/m² | - |
| 1777986705 | 18.89° C | 63% | 1013.8 hPa | 0 mm | - | 254 W/m² | - |
| 1777986403 | 18.89° C | 63% | 1013.8 hPa | 0 mm | - | 203 W/m² | - |
| 1777986102 | 18.89° C | 64% | 1013.8 hPa | 0 mm | - | 219 W/m² | - |
| 1777985797 | 18.89° C | 62% | 1014.1 hPa | 0 mm | - | 236 W/m² | - |
| 1777985495 | 18.89° C | 65% | 1014.1 hPa | 0 mm | - | 228 W/m² | - |
| 1777985191 | 19.44° C | 63% | 1014.1 hPa | 0 mm | - | 212 W/m² | - |
| 1777984888 | 19.44° C | 65% | 1013.8 hPa | 0 mm | - | 201 W/m² | - |
| 1777984583 | 19.44° C | 63% | 1013.8 hPa | 0 mm | - | 200 W/m² | - |
| 1777984280 | 18.89° C | 65% | 1013.8 hPa | 0 mm | - | 188 W/m² | - |
| 1777983977 | 18.89° C | 65% | 1013.8 hPa | 0 mm | - | 172 W/m² | - |
| 1777983674 | 18.33° C | 69% | 1013.8 hPa | 0 mm | - | 143 W/m² | - |
| 1777983365 | 18.33° C | 68% | 1013.8 hPa | 0 mm | - | 121 W/m² | - |
| 1777983062 | 18.89° C | 68% | 1013.8 hPa | 0 mm | - | 114 W/m² | - |
| 1777982758 | 18.33° C | 68% | 1013.8 hPa | 0 mm | - | 110 W/m² | - |
| 1777982454 | 17.78° C | 70% | 1013.8 hPa | 0 mm | - | 115 W/m² | - |
* Rain latest hour (hover to see other rain measurements)
** Current wind speed in m/s (hover to see current wind gust speed)